Weather History for Staunton, VA

Change the Weather History Date:

Friday, March 8, 2013

  Actual Average Record
Temperature  
Mean Temperature 37 °F -  
Max Temperature 44 °F 52 °F 82 °F (2009)
Min Temperature 30 °F 30 °F 12 °F (1999)
Degree Days  
Heating Degree Days 28    
Moisture  
Dew Point 25 °F    
Average Humidity 59    
Maximum Humidity 78    
Minimum Humidity 46    
Precipitation  
Precipitation 0.00 in - - ()
Sea Level Pressure  
Sea Level Pressure 30.25 in    
Wind  
Wind Speed 7 mph (North)    
Max Wind Speed 17 mph    
Max Gust Speed 25 mph    
Visibility 10 miles    
Events      
Averages and records for this station are not official NWS values.
T = Trace of Precipitation, MM = Missing Value Source: NWS Daily Summary

Daily Weather History Graph

Daily Weather History Graph

Search for Another Location

Airport:

Trip Planner

Search our weather history database for the weather conditions in past years. The results will help you decide how hot, cold, wet, or windy it might be!

Date:

Astronomy

Mar. 08, 2013 Rise Set
Actual Time 6:36 AM EST 6:16 PM EST
Civil Twilight 6:10 AM EST 6:42 PM EST
Nautical Twilight 5:40 AM EST 7:13 PM EST
Astronomical Twilight 5:09 AM EST 7:43 PM EST
Moon 4:17 AM EST (3/8) 3:11 PM EST (3/8)
Length of Visible Light 12h 31m
Length of Day
11h 39m
Waning Crescent, 12% of the Moon is Illuminated
Mar 8
Waning Crescent
Mar 11
New
Mar 19
First Quarter
Mar 27
Full
Apr 3
Last Quarter

Hourly Weather History & Observations

Time (EST) Temp. Windchill Dew Point Humidity Pressure Visibility Wind Dir Wind Speed Gust Speed Precip Events Conditions
12:15 AM 36.9 °F 34.3 °F 26.2 °F 65% 30.20 in 10.0 mi NNW 3.5 mph - N/A   Overcast
12:35 AM 37.4 °F - 26.4 °F 65% 30.20 in 10.0 mi Calm Calm - N/A   Overcast
1:15 AM 37.4 °F 34.9 °F 27.3 °F 67% 30.20 in 10.0 mi North 3.5 mph - N/A   Overcast
1:35 AM 35.8 °F 33.0 °F 28.4 °F 75% 30.20 in 10.0 mi NNE 3.5 mph - N/A   Overcast
1:55 AM 36.5 °F 31.8 °F 28.0 °F 71% 30.20 in 10.0 mi North 5.8 mph - N/A   Overcast
2:15 AM 37.4 °F 31.4 °F 28.0 °F 69% 30.20 in 10.0 mi North 8.1 mph - N/A   Overcast
2:55 AM 36.7 °F 34.1 °F 28.8 °F 73% 30.19 in 10.0 mi North 3.5 mph - N/A   Overcast
3:15 AM 36.5 °F 32.7 °F 28.8 °F 74% 30.19 in 10.0 mi NNW 4.6 mph - N/A   Overcast
3:35 AM 36.5 °F 29.7 °F 27.5 °F 70% 30.18 in 10.0 mi NNW 9.2 mph - N/A   Overcast
3:55 AM 36.3 °F 28.0 °F 25.7 °F 65% 30.17 in 10.0 mi NW 12.7 mph - N/A   Scattered Clouds
4:15 AM 35.4 °F 32.6 °F 25.7 °F 68% 30.19 in 10.0 mi North 3.5 mph - N/A   Clear
4:55 AM 34.5 °F 29.4 °F 23.7 °F 65% 30.20 in 10.0 mi North 5.8 mph - N/A   Mostly Cloudy
5:15 AM 34.0 °F 29.8 °F 23.9 °F 67% 30.20 in 10.0 mi NNW 4.6 mph - N/A   Overcast
5:35 AM 32.9 °F 27.5 °F 24.8 °F 72% 30.21 in 10.0 mi NNE 5.8 mph - N/A   Overcast
5:55 AM 33.8 °F 28.6 °F 23.9 °F 67% 30.22 in 10.0 mi North 5.8 mph - N/A   Overcast
6:15 AM 33.8 °F 30.8 °F 23.7 °F 67% 30.22 in 10.0 mi North 3.5 mph - N/A   Overcast
6:55 AM 34.9 °F 30.8 °F 23.4 °F 63% 30.23 in 10.0 mi North 4.6 mph - N/A   Overcast
7:35 AM 34.2 °F 26.8 °F 21.9 °F 61% 30.25 in 10.0 mi NNW 9.2 mph - N/A   Mostly Cloudy
7:55 AM 35.1 °F 27.9 °F 22.1 °F 59% 30.25 in 10.0 mi North 9.2 mph - N/A   Overcast
8:15 AM 35.8 °F 26.9 °F 22.1 °F 58% 30.25 in 10.0 mi NNW 13.8 mph 25.3 mph N/A   Overcast
8:35 AM 36.9 °F 28.7 °F 22.5 °F 56% 30.26 in 10.0 mi NNW 12.7 mph 20.7 mph N/A   Mostly Cloudy
8:55 AM 37.4 °F 29.8 °F 23.0 °F 56% 30.27 in 10.0 mi NNW 11.5 mph - N/A   Mostly Cloudy
9:15 AM 38.3 °F 29.0 °F 22.8 °F 54% 30.25 in 10.0 mi NW 17.3 mph - N/A   Overcast
9:35 AM 37.9 °F 30.0 °F 22.1 °F 53% 30.27 in 10.0 mi North 12.7 mph 17.3 mph N/A   Scattered Clouds
9:55 AM 38.7 °F 29.5 °F 21.9 °F 51% 30.26 in 10.0 mi NNW 17.3 mph - N/A   Mostly Cloudy
10:15 AM 39.7 °F 31.9 °F 22.3 °F 50% 30.26 in 10.0 mi NNW 13.8 mph 24.2 mph N/A   Overcast
10:35 AM 39.7 °F 32.3 °F 22.5 °F 50% 30.26 in 10.0 mi North 12.7 mph 19.6 mph N/A   Scattered Clouds
10:55 AM 40.3 °F 31.9 °F 22.5 °F 49% 30.26 in 10.0 mi North 16.1 mph 19.6 mph N/A   Clear
11:15 AM 40.8 °F 34.1 °F 22.8 °F 49% 30.26 in 10.0 mi North 11.5 mph 20.7 mph N/A   Scattered Clouds
11:35 AM 39.4 °F 32.3 °F 22.8 °F 52% 30.26 in 10.0 mi North 11.5 mph - N/A   Mostly Cloudy
11:55 AM 40.1 °F 34.1 °F 23.5 °F 52% 30.25 in 10.0 mi North 9.2 mph - N/A   Scattered Clouds
12:15 PM 41.9 °F 37.5 °F 23.9 °F 49% 30.24 in 10.0 mi NNW 6.9 mph - N/A   Clear
12:35 PM 42.6 °F 37.2 °F 23.9 °F 48% 30.24 in 10.0 mi North 9.2 mph - N/A   Clear
12:55 PM 41.9 °F 36.9 °F 24.1 °F 49% 30.23 in 10.0 mi NNE 8.1 mph - N/A   Scattered Clouds
1:15 PM 43.0 °F 37.2 °F 24.3 °F 48% 30.22 in 10.0 mi North 10.4 mph - N/A   Scattered Clouds
1:35 PM 43.3 °F 38.1 °F 23.9 °F 46% 30.22 in 10.0 mi North 9.2 mph - N/A   Clear
1:55 PM 43.5 °F 38.3 °F 24.4 °F 47% 30.22 in 10.0 mi NNE 9.2 mph - N/A   Clear
2:15 PM 42.4 °F 38.1 °F 25.3 °F 51% 30.22 in 10.0 mi North 6.9 mph - N/A   Clear
2:35 PM 43.2 °F 37.9 °F 25.2 °F 49% 30.22 in 10.0 mi NNE 9.2 mph - N/A   Clear
2:55 PM 44.2 °F 38.4 °F 25.0 °F 47% 30.22 in 10.0 mi North 11.5 mph - N/A   Clear
3:15 PM 44.4 °F 40.0 °F 25.3 °F 47% 30.22 in 10.0 mi NNE 8.1 mph - N/A   Clear
3:35 PM 44.1 °F 39.0 °F 25.5 °F 48% 30.23 in 10.0 mi NNE 9.2 mph - N/A   Clear
3:55 PM 44.1 °F 39.0 °F 25.9 °F 49% 30.23 in 10.0 mi North 9.2 mph - N/A   Clear
4:15 PM 44.1 °F 39.5 °F 26.2 °F 50% 30.23 in 10.0 mi North 8.1 mph - N/A   Clear
4:35 PM 44.6 °F 39.2 °F 25.9 °F 48% 30.24 in 10.0 mi NNW 10.4 mph 16.1 mph N/A   Clear
4:55 PM 44.2 °F 39.2 °F 26.1 °F 49% 30.25 in 10.0 mi NNW 9.2 mph - N/A   Clear
5:15 PM 43.7 °F 37.3 °F 26.1 °F 50% 30.25 in 10.0 mi NNW 12.7 mph - N/A   Clear
5:35 PM 43.3 °F 39.2 °F 26.6 °F 52% 30.26 in 10.0 mi NNW 6.9 mph - N/A   Clear
5:55 PM 42.1 °F 35.7 °F 26.1 °F 53% 30.26 in 10.0 mi NW 11.5 mph - N/A   Clear
6:15 PM 41.2 °F 34.5 °F 26.2 °F 55% 30.26 in 10.0 mi NNW 11.5 mph 21.9 mph N/A   Clear
6:35 PM 40.8 °F 36.9 °F 25.7 °F 55% 30.28 in 10.0 mi North 5.8 mph - N/A   Clear
6:55 PM 40.1 °F 36.1 °F 25.7 °F 56% 30.29 in 10.0 mi North 5.8 mph - N/A   Clear
7:15 PM 38.8 °F 36.5 °F 26.1 °F 60% 30.30 in 10.0 mi NE 3.5 mph - N/A   Clear
7:35 PM 39.6 °F - 25.5 °F 57% 30.31 in 10.0 mi Calm Calm - N/A   Clear
7:55 PM 39.6 °F 36.3 °F 25.7 °F 58% 30.32 in 10.0 mi ENE 4.6 mph - N/A   Clear
8:15 PM 39.0 °F - 25.7 °F 59% 30.33 in 10.0 mi Calm Calm - N/A   Clear
8:35 PM 38.1 °F 33.7 °F 25.7 °F 61% 30.32 in 10.0 mi North 5.8 mph - N/A   Clear
8:55 PM 37.4 °F 34.9 °F 25.5 °F 62% 30.33 in 10.0 mi North 3.5 mph - N/A   Clear
9:15 PM 36.9 °F 33.1 °F 25.5 °F 64% 30.33 in 10.0 mi North 4.6 mph - N/A   Clear
9:35 PM 36.1 °F 32.3 °F 25.3 °F 65% 30.32 in 10.0 mi North 4.6 mph - N/A   Clear
9:55 PM 35.8 °F 31.9 °F 25.2 °F 65% 30.31 in 10.0 mi NNE 4.6 mph - N/A   Clear
10:15 PM 34.2 °F - 25.3 °F 70% 30.33 in 10.0 mi Calm Calm - N/A   Clear
10:35 PM 32.0 °F - 24.8 °F 75% 30.32 in 10.0 mi Calm Calm - N/A   Clear
10:55 PM 32.0 °F - 24.6 °F 74% 30.32 in 10.0 mi Calm Calm - N/A   Clear
11:15 PM 32.0 °F - 24.8 °F 75% 30.32 in 10.0 mi Calm Calm - N/A   Clear
11:35 PM 30.2 °F - 24.1 °F 78% 30.32 in 10.0 mi Calm Calm - N/A   Clear
11:55 PM 30.9 °F - 24.3 °F 76% 30.32 in 10.0 mi Calm Calm - N/A   Clear